Year,Month,Day,Hour,Minute,Value (Times are PST for insolation in W/m^2)
2016,03,15,00,00,0.00
2016,03,15,00,01,0.00
2016,03,15,00,02,0.00
2016,03,15,00,03,0.00
2016,03,15,00,04,0.00
2016,03,15,00,05,0.00
2016,03,15,00,06,0.00
2016,03,15,00,07,0.00
2016,03,15,00,08,0.00
2016,03,15,00,09,0.00
2016,03,15,00,10,0.00
2016,03,15,00,11,0.00
2016,03,15,00,12,0.00
2016,03,15,00,13,0.00
2016,03,15,00,14,0.00
2016,03,15,00,15,0.00
2016,03,15,00,16,0.00
2016,03,15,00,17,0.00
2016,03,15,00,18,0.00
2016,03,15,00,19,0.00
2016,03,15,00,20,0.00
2016,03,15,00,21,0.00
2016,03,15,00,22,0.00
2016,03,15,00,23,0.00
2016,03,15,00,24,0.00
2016,03,15,00,25,0.00
2016,03,15,00,26,0.00
2016,03,15,00,27,0.00
2016,03,15,00,28,0.00
2016,03,15,00,29,0.00
2016,03,15,00,30,0.00
2016,03,15,00,31,0.00
2016,03,15,00,32,0.00
2016,03,15,00,33,0.00
2016,03,15,00,34,0.00
2016,03,15,00,35,0.00
2016,03,15,00,36,0.00
2016,03,15,00,37,0.00
2016,03,15,00,38,0.00
2016,03,15,00,39,0.00
2016,03,15,00,40,0.00
2016,03,15,00,41,0.00
2016,03,15,00,42,0.00
2016,03,15,00,43,0.00
2016,03,15,00,44,0.00
2016,03,15,00,45,0.00
2016,03,15,00,46,0.00
2016,03,15,00,47,0.00
2016,03,15,00,48,0.00
2016,03,15,00,49,0.00
2016,03,15,00,50,0.00
2016,03,15,00,51,0.00
2016,03,15,00,52,0.00
2016,03,15,00,53,0.00
2016,03,15,00,54,0.00
2016,03,15,00,55,0.00
2016,03,15,00,56,0.00
2016,03,15,00,57,0.00
2016,03,15,00,58,0.00
2016,03,15,00,59,0.00
2016,03,15,01,00,0.00
2016,03,15,01,01,0.00
2016,03,15,01,02,0.00
2016,03,15,01,03,0.00
2016,03,15,01,04,0.00
2016,03,15,01,05,0.00
2016,03,15,01,06,0.00
2016,03,15,01,07,0.00
2016,03,15,01,08,0.00
2016,03,15,01,09,0.00
2016,03,15,01,10,0.00
2016,03,15,01,11,0.00
2016,03,15,01,12,0.00
2016,03,15,01,13,0.00
2016,03,15,01,14,0.00
2016,03,15,01,15,0.00
2016,03,15,01,16,0.00
2016,03,15,01,17,0.00
2016,03,15,01,18,0.00
2016,03,15,01,19,0.00
2016,03,15,01,20,0.00
2016,03,15,01,21,0.00
2016,03,15,01,22,0.00
2016,03,15,01,23,0.00
2016,03,15,01,24,0.00
2016,03,15,01,25,0.00
2016,03,15,01,26,0.00
2016,03,15,01,27,0.00
2016,03,15,01,28,0.00
2016,03,15,01,29,0.00
2016,03,15,01,30,0.00
2016,03,15,01,31,0.00
2016,03,15,01,32,0.00
2016,03,15,01,33,0.00
2016,03,15,01,34,0.00
2016,03,15,01,35,0.00
2016,03,15,01,36,0.00
2016,03,15,01,37,0.00
2016,03,15,01,38,0.00
2016,03,15,01,39,0.00
2016,03,15,01,40,0.00
2016,03,15,01,41,0.00
2016,03,15,01,42,0.00
2016,03,15,01,43,0.00
2016,03,15,01,44,0.00
2016,03,15,01,45,0.00
2016,03,15,01,46,0.00
2016,03,15,01,47,0.00
2016,03,15,01,48,0.00
2016,03,15,01,49,0.00
2016,03,15,01,50,0.00
2016,03,15,01,51,0.00
2016,03,15,01,52,0.00
2016,03,15,01,53,0.00
2016,03,15,01,54,0.00
2016,03,15,01,55,0.00
2016,03,15,01,56,0.00
2016,03,15,01,57,0.00
2016,03,15,01,58,0.00
2016,03,15,01,59,0.00
2016,03,15,02,00,0.00
2016,03,15,02,01,0.00
2016,03,15,02,02,0.00
2016,03,15,02,03,0.00
2016,03,15,02,04,0.00
2016,03,15,02,05,0.00
2016,03,15,02,06,0.00
2016,03,15,02,07,0.00
2016,03,15,02,08,0.00
2016,03,15,02,09,0.00
2016,03,15,02,10,0.00
2016,03,15,02,11,0.00
2016,03,15,02,12,0.00
2016,03,15,02,13,0.00
2016,03,15,02,14,0.00
2016,03,15,02,15,0.00
2016,03,15,02,16,0.00
2016,03,15,02,17,0.00
2016,03,15,02,18,0.00
2016,03,15,02,19,0.00
2016,03,15,02,20,0.00
2016,03,15,02,21,0.00
2016,03,15,02,22,0.00
2016,03,15,02,23,0.00
2016,03,15,02,24,0.00
2016,03,15,02,25,0.00
2016,03,15,02,26,0.00
2016,03,15,02,27,0.00
2016,03,15,02,28,0.00
2016,03,15,02,29,0.00
2016,03,15,02,30,0.00
2016,03,15,02,31,0.00
2016,03,15,02,32,0.00
2016,03,15,02,33,0.00
2016,03,15,02,34,0.00
2016,03,15,02,35,0.00
2016,03,15,02,36,0.00
2016,03,15,02,37,0.00
2016,03,15,02,38,0.00
2016,03,15,02,39,0.00
2016,03,15,02,40,0.00
2016,03,15,02,41,0.00
2016,03,15,02,42,0.00
2016,03,15,02,43,0.00
2016,03,15,02,44,0.00
2016,03,15,02,45,0.00
2016,03,15,02,46,0.00
2016,03,15,02,47,0.00
2016,03,15,02,48,0.00
2016,03,15,02,49,0.00
2016,03,15,02,50,0.00
2016,03,15,02,51,0.00
2016,03,15,02,52,0.00
2016,03,15,02,53,0.00
2016,03,15,02,54,0.00
2016,03,15,02,55,0.00
2016,03,15,02,56,0.00
2016,03,15,02,57,0.00
2016,03,15,02,58,0.00
2016,03,15,02,59,0.00
2016,03,15,03,00,0.00
2016,03,15,03,01,0.00
2016,03,15,03,02,0.00
2016,03,15,03,03,0.00
2016,03,15,03,04,0.00
2016,03,15,03,05,0.00
2016,03,15,03,06,0.00
2016,03,15,03,07,0.00
2016,03,15,03,08,0.00
2016,03,15,03,09,0.00
2016,03,15,03,10,0.00
2016,03,15,03,11,0.00
2016,03,15,03,12,0.00
2016,03,15,03,13,0.00
2016,03,15,03,14,0.00
2016,03,15,03,15,0.00
2016,03,15,03,16,0.00
2016,03,15,03,17,0.00
2016,03,15,03,18,0.00
2016,03,15,03,19,0.00
2016,03,15,03,20,0.00
2016,03,15,03,21,0.00
2016,03,15,03,22,0.00
2016,03,15,03,23,0.00
2016,03,15,03,24,0.00
2016,03,15,03,25,0.00
2016,03,15,03,26,0.00
2016,03,15,03,27,0.00
2016,03,15,03,28,0.00
2016,03,15,03,29,0.00
2016,03,15,03,30,0.00
2016,03,15,03,31,0.00
2016,03,15,03,32,0.00
2016,03,15,03,33,0.00
2016,03,15,03,34,0.00
2016,03,15,03,35,0.00
2016,03,15,03,36,0.00
2016,03,15,03,37,0.00
2016,03,15,03,38,0.00
2016,03,15,03,39,0.00
2016,03,15,03,40,0.00
2016,03,15,03,41,0.00
2016,03,15,03,42,0.00
2016,03,15,03,43,0.00
2016,03,15,03,44,0.00
2016,03,15,03,45,0.00
2016,03,15,03,46,0.00
2016,03,15,03,47,0.00
2016,03,15,03,48,0.00
2016,03,15,03,49,0.00
2016,03,15,03,50,0.00
2016,03,15,03,51,0.00
2016,03,15,03,52,0.00
2016,03,15,03,53,0.00
2016,03,15,03,54,0.00
2016,03,15,03,55,0.00
2016,03,15,03,56,0.00
2016,03,15,03,57,0.00
2016,03,15,03,58,0.00
2016,03,15,03,59,0.00
2016,03,15,04,00,0.00
2016,03,15,04,01,0.00
2016,03,15,04,02,0.00
2016,03,15,04,03,0.00
2016,03,15,04,04,0.00
2016,03,15,04,05,0.00
2016,03,15,04,06,0.00
2016,03,15,04,07,0.00
2016,03,15,04,08,0.00
2016,03,15,04,09,0.00
2016,03,15,04,10,0.00
2016,03,15,04,11,0.00
2016,03,15,04,12,0.00
2016,03,15,04,13,0.00
2016,03,15,04,14,0.00
2016,03,15,04,15,0.00
2016,03,15,04,16,0.00
2016,03,15,04,17,0.00
2016,03,15,04,18,0.00
2016,03,15,04,19,0.00
2016,03,15,04,20,0.00
2016,03,15,04,21,0.00
2016,03,15,04,22,0.00
2016,03,15,04,23,0.00
2016,03,15,04,24,0.00
2016,03,15,04,25,0.00
2016,03,15,04,26,0.00
2016,03,15,04,27,0.00
2016,03,15,04,28,0.00
2016,03,15,04,29,0.00
2016,03,15,04,30,0.00
2016,03,15,04,31,0.00
2016,03,15,04,32,0.00
2016,03,15,04,33,0.00
2016,03,15,04,34,0.00
2016,03,15,04,35,0.00
2016,03,15,04,36,0.00
2016,03,15,04,37,0.00
2016,03,15,04,38,0.00
2016,03,15,04,39,0.00
2016,03,15,04,40,0.00
2016,03,15,04,41,0.00
2016,03,15,04,42,0.00
2016,03,15,04,43,0.00
2016,03,15,04,44,0.00
2016,03,15,04,45,0.00
2016,03,15,04,46,0.00
2016,03,15,04,47,0.00
2016,03,15,04,48,0.00
2016,03,15,04,49,0.00
2016,03,15,04,50,0.00
2016,03,15,04,51,0.00
2016,03,15,04,52,0.00
2016,03,15,04,53,0.00
2016,03,15,04,54,0.00
2016,03,15,04,55,0.00
2016,03,15,04,56,0.00
2016,03,15,04,57,0.00
2016,03,15,04,58,0.00
2016,03,15,04,59,0.00
2016,03,15,05,00,0.00
2016,03,15,05,01,0.00
2016,03,15,05,02,0.00
2016,03,15,05,03,0.00
2016,03,15,05,04,0.00
2016,03,15,05,05,0.00
2016,03,15,05,06,0.00
2016,03,15,05,07,0.00
2016,03,15,05,08,0.00
2016,03,15,05,09,0.00
2016,03,15,05,10,0.00
2016,03,15,05,11,0.00
2016,03,15,05,12,0.00
2016,03,15,05,13,0.00
2016,03,15,05,14,0.00
2016,03,15,05,15,0.00
2016,03,15,05,16,0.00
2016,03,15,05,17,0.00
2016,03,15,05,18,0.00
2016,03,15,05,19,0.00
2016,03,15,05,20,0.00
2016,03,15,05,21,0.00
2016,03,15,05,22,0.00
2016,03,15,05,23,0.00
2016,03,15,05,24,0.00
2016,03,15,05,25,0.00
2016,03,15,05,26,0.00
2016,03,15,05,27,0.00
2016,03,15,05,28,0.00
2016,03,15,05,29,0.00
2016,03,15,05,30,0.00
2016,03,15,05,31,0.00
2016,03,15,05,32,0.00
2016,03,15,05,33,0.00
2016,03,15,05,34,0.00
2016,03,15,05,35,0.00
2016,03,15,05,36,0.00
2016,03,15,05,37,0.00
2016,03,15,05,38,0.00
2016,03,15,05,39,0.00
2016,03,15,05,40,0.00
2016,03,15,05,41,0.00
2016,03,15,05,42,0.00
2016,03,15,05,43,0.00
2016,03,15,05,44,0.00
2016,03,15,05,45,0.00
2016,03,15,05,46,0.00
2016,03,15,05,47,0.00
2016,03,15,05,48,0.00
2016,03,15,05,49,0.00
2016,03,15,05,50,0.00
2016,03,15,05,51,0.00
2016,03,15,05,52,0.00
2016,03,15,05,53,0.00
2016,03,15,05,54,0.00
2016,03,15,05,55,0.00
2016,03,15,05,56,0.00
2016,03,15,05,57,0.00
2016,03,15,05,58,0.00
2016,03,15,05,59,0.00
2016,03,15,06,00,0.00
2016,03,15,06,01,0.00
2016,03,15,06,02,0.00
2016,03,15,06,03,0.00
2016,03,15,06,04,0.00
2016,03,15,06,05,0.00
2016,03,15,06,06,0.00
2016,03,15,06,07,0.00
2016,03,15,06,08,0.00
2016,03,15,06,09,0.00
2016,03,15,06,10,0.00
2016,03,15,06,11,0.00
2016,03,15,06,12,0.00
2016,03,15,06,13,0.00
2016,03,15,06,14,0.00
2016,03,15,06,15,0.00
2016,03,15,06,16,0.00
2016,03,15,06,17,0.00
2016,03,15,06,18,0.00
2016,03,15,06,19,0.00
2016,03,15,06,20,0.00
2016,03,15,06,21,0.00
2016,03,15,06,22,0.00
2016,03,15,06,23,0.00
2016,03,15,06,24,0.00
2016,03,15,06,25,0.00
2016,03,15,06,26,0.00
2016,03,15,06,27,0.00
2016,03,15,06,28,0.00
2016,03,15,06,29,0.00
2016,03,15,06,30,0.00
2016,03,15,06,31,0.00
2016,03,15,06,32,0.00
2016,03,15,06,33,0.00
2016,03,15,06,34,0.00
2016,03,15,06,35,0.00
2016,03,15,06,36,0.00
2016,03,15,06,37,0.00
2016,03,15,06,38,0.00
2016,03,15,06,39,0.00
2016,03,15,06,40,0.00
2016,03,15,06,41,0.00
2016,03,15,06,42,0.00
2016,03,15,06,43,0.00
2016,03,15,06,44,0.00
2016,03,15,06,45,0.00
2016,03,15,06,46,0.00
2016,03,15,06,47,0.00
2016,03,15,06,48,0.00
2016,03,15,06,49,0.00
2016,03,15,06,50,0.00
2016,03,15,06,51,0.00
2016,03,15,06,52,0.00
2016,03,15,06,53,0.00
2016,03,15,06,54,0.00
2016,03,15,06,55,0.00
2016,03,15,06,56,0.00
2016,03,15,06,57,0.00
2016,03,15,06,58,0.00
2016,03,15,06,59,0.00
2016,03,15,07,00,0.00
2016,03,15,07,01,0.00
2016,03,15,07,02,0.00
2016,03,15,07,03,0.00
2016,03,15,07,04,0.00
2016,03,15,07,05,0.00
2016,03,15,07,06,0.00
2016,03,15,07,07,0.00
2016,03,15,07,08,0.00
2016,03,15,07,09,0.00
2016,03,15,07,10,0.00
2016,03,15,07,11,0.00
2016,03,15,07,12,0.00
2016,03,15,07,13,0.00
2016,03,15,07,14,0.00
2016,03,15,07,15,0.00
2016,03,15,07,16,0.00
2016,03,15,07,17,0.00
2016,03,15,07,18,0.00
2016,03,15,07,19,0.00
2016,03,15,07,20,0.00
2016,03,15,07,21,0.00
2016,03,15,07,22,0.00
2016,03,15,07,23,0.00
2016,03,15,07,24,0.00
2016,03,15,07,25,0.00
2016,03,15,07,26,0.00
2016,03,15,07,27,0.00
2016,03,15,07,28,0.00
2016,03,15,07,29,0.00
2016,03,15,07,30,0.00
2016,03,15,07,31,0.00
2016,03,15,07,32,0.00
2016,03,15,07,33,0.30
2016,03,15,07,34,5.00
2016,03,15,07,35,5.00
2016,03,15,07,36,5.00
2016,03,15,07,37,5.00
2016,03,15,07,38,5.40
2016,03,15,07,39,7.00
2016,03,15,07,40,7.00
2016,03,15,07,41,7.00
2016,03,15,07,42,7.80
2016,03,15,07,43,9.00
2016,03,15,07,44,9.00
2016,03,15,07,45,9.00
2016,03,15,07,46,9.00
2016,03,15,07,47,10.30
2016,03,15,07,48,11.00
2016,03,15,07,49,11.00
2016,03,15,07,50,11.70
2016,03,15,07,51,12.00
2016,03,15,07,52,12.00
2016,03,15,07,53,13.70
2016,03,15,07,54,14.00
2016,03,15,07,55,15.80
2016,03,15,07,56,17.90
2016,03,15,07,57,19.00
2016,03,15,07,58,19.20
2016,03,15,07,59,21.30
2016,03,15,08,00,23.40
2016,03,15,08,01,25.00
2016,03,15,08,02,25.30
2016,03,15,08,03,26.60
2016,03,15,08,04,28.70
2016,03,15,08,05,30.70
2016,03,15,08,06,33.30
2016,03,15,08,07,35.90
2016,03,15,08,08,38.60
2016,03,15,08,09,42.30
2016,03,15,08,10,47.20
2016,03,15,08,11,51.50
2016,03,15,08,12,55.00
2016,03,15,08,13,57.50
2016,03,15,08,14,59.50
2016,03,15,08,15,60.00
2016,03,15,08,16,58.30
2016,03,15,08,17,56.30
2016,03,15,08,18,54.10
2016,03,15,08,19,51.00
2016,03,15,08,20,49.00
2016,03,15,08,21,49.00
2016,03,15,08,22,49.00
2016,03,15,08,23,49.30
2016,03,15,08,24,51.40
2016,03,15,08,25,53.80
2016,03,15,08,26,56.00
2016,03,15,08,27,56.70
2016,03,15,08,28,58.00
2016,03,15,08,29,58.00
2016,03,15,08,30,58.00
2016,03,15,08,31,56.90
2016,03,15,08,32,56.00
2016,03,15,08,33,54.70
2016,03,15,08,34,54.00
2016,03,15,08,35,53.30
2016,03,15,08,36,53.00
2016,03,15,08,37,53.00
2016,03,15,08,38,53.80
2016,03,15,08,39,55.60
2016,03,15,08,40,57.70
2016,03,15,08,41,58.00
2016,03,15,08,42,56.00
2016,03,15,08,43,56.00
2016,03,15,08,44,56.20
2016,03,15,08,45,58.80
2016,03,15,08,46,63.90
2016,03,15,08,47,69.60
2016,03,15,08,48,73.30
2016,03,15,08,49,77.60
2016,03,15,08,50,79.00
2016,03,15,08,51,78.20
2016,03,15,08,52,77.00
2016,03,15,08,53,76.60
2016,03,15,08,54,76.00
2016,03,15,08,55,74.80
2016,03,15,08,56,72.70
2016,03,15,08,57,70.70
2016,03,15,08,58,69.30
2016,03,15,08,59,69.70
2016,03,15,09,00,71.50
2016,03,15,09,01,70.30
2016,03,15,09,02,70.00
2016,03,15,09,03,70.00
2016,03,15,09,04,69.10
2016,03,15,09,05,69.00
2016,03,15,09,06,67.00
2016,03,15,09,07,67.00
2016,03,15,09,08,67.00
2016,03,15,09,09,67.00
2016,03,15,09,10,67.50
2016,03,15,09,11,69.30
2016,03,15,09,12,71.30
2016,03,15,09,13,75.10
2016,03,15,09,14,80.80
2016,03,15,09,15,90.30
2016,03,15,09,16,98.30
2016,03,15,09,17,105.80
2016,03,15,09,18,112.00
2016,03,15,09,19,117.50
2016,03,15,09,20,127.60
2016,03,15,09,21,143.90
2016,03,15,09,22,160.80
2016,03,15,09,23,175.30
2016,03,15,09,24,190.80
2016,03,15,09,25,235.50
2016,03,15,09,26,231.40
2016,03,15,09,27,221.40
2016,03,15,09,28,238.50
2016,03,15,09,29,232.20
2016,03,15,09,30,246.80
2016,03,15,09,31,214.80
2016,03,15,09,32,227.00
2016,03,15,09,33,175.50
2016,03,15,09,34,164.20
2016,03,15,09,35,162.00
2016,03,15,09,36,168.30
2016,03,15,09,37,174.60
2016,03,15,09,38,167.80
2016,03,15,09,39,171.40
2016,03,15,09,40,175.10
2016,03,15,09,41,171.90
2016,03,15,09,42,166.70
2016,03,15,09,43,165.00
2016,03,15,09,44,172.50
2016,03,15,09,45,164.20
2016,03,15,09,46,167.10
2016,03,15,09,47,158.70
2016,03,15,09,48,153.50
2016,03,15,09,49,149.40
2016,03,15,09,50,141.40
2016,03,15,09,51,137.20
2016,03,15,09,52,133.80
2016,03,15,09,53,129.50
2016,03,15,09,54,124.20
2016,03,15,09,55,119.60
2016,03,15,09,56,119.30
2016,03,15,09,57,124.80
2016,03,15,09,58,132.20
2016,03,15,09,59,138.50
2016,03,15,10,00,143.00
2016,03,15,10,01,147.30
2016,03,15,10,02,153.10
2016,03,15,10,03,162.70
2016,03,15,10,04,168.20
2016,03,15,10,05,173.20
2016,03,15,10,06,182.50
2016,03,15,10,07,193.50
2016,03,15,10,08,228.50
2016,03,15,10,09,317.90
2016,03,15,10,10,366.60
2016,03,15,10,11,404.30
2016,03,15,10,12,416.30
2016,03,15,10,13,360.20
2016,03,15,10,14,359.00
2016,03,15,10,15,368.90
2016,03,15,10,16,411.80
2016,03,15,10,17,481.90
2016,03,15,10,18,506.10
2016,03,15,10,19,515.50
2016,03,15,10,20,489.20
2016,03,15,10,21,419.70
2016,03,15,10,22,399.40
2016,03,15,10,23,424.00
2016,03,15,10,24,350.70
2016,03,15,10,25,250.50
2016,03,15,10,26,251.00
2016,03,15,10,27,244.70
2016,03,15,10,28,227.60
2016,03,15,10,29,220.40
2016,03,15,10,30,220.00
2016,03,15,10,31,368.80
2016,03,15,10,32,435.40
2016,03,15,10,33,440.60
2016,03,15,10,34,441.00
2016,03,15,10,35,266.50
2016,03,15,10,36,192.90
2016,03,15,10,37,213.00
2016,03,15,10,38,231.50
2016,03,15,10,39,562.20
2016,03,15,10,40,549.20
2016,03,15,10,41,566.60
2016,03,15,10,42,561.00
2016,03,15,10,43,561.00
2016,03,15,10,44,561.00
2016,03,15,10,45,577.20
2016,03,15,10,46,598.30
2016,03,15,10,47,581.40
2016,03,15,10,48,577.60
2016,03,15,10,49,591.50
2016,03,15,10,50,588.70
2016,03,15,10,51,570.90
2016,03,15,10,52,564.00
2016,03,15,10,53,375.30
2016,03,15,10,54,312.50
2016,03,15,10,55,304.10
2016,03,15,10,56,299.00
2016,03,15,10,57,486.00
2016,03,15,10,58,519.00
2016,03,15,10,59,519.00
2016,03,15,11,00,627.00
2016,03,15,11,01,633.00
2016,03,15,11,02,627.10
2016,03,15,11,03,577.00
2016,03,15,11,04,577.00
2016,03,15,11,05,569.40
2016,03,15,11,06,541.00
2016,03,15,11,07,541.00
2016,03,15,11,08,530.20
2016,03,15,11,09,510.00
2016,03,15,11,10,510.00
2016,03,15,11,11,536.10
2016,03,15,11,12,568.00
2016,03,15,11,13,553.50
2016,03,15,11,14,516.50
2016,03,15,11,15,498.50
2016,03,15,11,16,497.00
2016,03,15,11,17,497.00
2016,03,15,11,18,497.00
2016,03,15,11,19,393.40
2016,03,15,11,20,306.60
2016,03,15,11,21,294.00
2016,03,15,11,22,294.00
2016,03,15,11,23,294.00
2016,03,15,11,24,655.50
2016,03,15,11,25,677.90
2016,03,15,11,26,643.90
2016,03,15,11,27,656.40
2016,03,15,11,28,684.00
2016,03,15,11,29,684.00
2016,03,15,11,30,582.90
2016,03,15,11,31,357.00
2016,03,15,11,32,330.70
2016,03,15,11,33,340.10
2016,03,15,11,34,398.90
2016,03,15,11,35,454.10
2016,03,15,11,36,504.00
2016,03,15,11,37,561.80
2016,03,15,11,38,573.40
2016,03,15,11,39,514.60
2016,03,15,11,40,431.20
2016,03,15,11,41,436.90
2016,03,15,11,42,475.60
2016,03,15,11,43,521.70
2016,03,15,11,44,615.80
2016,03,15,11,45,644.00
2016,03,15,11,46,564.00
2016,03,15,11,47,649.40
2016,03,15,11,48,729.80
2016,03,15,11,49,744.00
2016,03,15,11,50,737.40
2016,03,15,11,51,710.00
2016,03,15,11,52,741.80
2016,03,15,11,53,723.60
2016,03,15,11,54,673.00
2016,03,15,11,55,718.10
2016,03,15,11,56,780.00
2016,03,15,11,57,769.60
2016,03,15,11,58,747.50
2016,03,15,11,59,737.00
2016,03,15,12,00,639.20
2016,03,15,12,01,535.20
2016,03,15,12,02,482.20
2016,03,15,12,03,466.00
2016,03,15,12,04,387.80
2016,03,15,12,05,367.00
2016,03,15,12,06,367.00
2016,03,15,12,07,367.00
2016,03,15,12,08,367.00
2016,03,15,12,09,350.00
2016,03,15,12,10,372.90
2016,03,15,12,11,783.20
2016,03,15,12,12,758.00
2016,03,15,12,13,758.00
2016,03,15,12,14,758.00
2016,03,15,12,15,609.80
2016,03,15,12,16,185.20
2016,03,15,12,17,160.00
2016,03,15,12,18,145.60
2016,03,15,12,19,145.60
2016,03,15,12,20,163.80
2016,03,15,12,21,197.00
2016,03,15,12,22,242.60
2016,03,15,12,23,214.00
2016,03,15,12,24,174.00
2016,03,15,12,25,167.00
2016,03,15,12,26,170.70
2016,03,15,12,27,180.70
2016,03,15,12,28,188.90
2016,03,15,12,29,192.50
2016,03,15,12,30,204.60
2016,03,15,12,31,264.50
2016,03,15,12,32,236.00
2016,03,15,12,33,237.10
2016,03,15,12,34,237.40
2016,03,15,12,35,221.90
2016,03,15,12,36,212.60
2016,03,15,12,37,210.60
2016,03,15,12,38,208.50
2016,03,15,12,39,206.70
2016,03,15,12,40,204.50
2016,03,15,12,41,200.70
2016,03,15,12,42,199.00
2016,03,15,12,43,201.40
2016,03,15,12,44,214.00
2016,03,15,12,45,242.20
2016,03,15,12,46,258.00
2016,03,15,12,47,599.30
2016,03,15,12,48,770.00
2016,03,15,12,49,770.00
2016,03,15,12,50,622.60
2016,03,15,12,51,570.00
2016,03,15,12,52,668.50
2016,03,15,12,53,635.10
2016,03,15,12,54,589.20
2016,03,15,12,55,663.00
2016,03,15,12,56,701.00
2016,03,15,12,57,701.00
2016,03,15,12,58,666.50
2016,03,15,12,59,374.60
2016,03,15,13,00,381.00
2016,03,15,13,01,448.10
2016,03,15,13,02,608.20
2016,03,15,13,03,548.00
2016,03,15,13,04,548.00
2016,03,15,13,05,413.90
2016,03,15,13,06,262.60
2016,03,15,13,07,255.30
2016,03,15,13,08,246.80
2016,03,15,13,09,236.40
2016,03,15,13,10,221.90
2016,03,15,13,11,209.00
2016,03,15,13,12,201.60
2016,03,15,13,13,194.50
2016,03,15,13,14,184.60
2016,03,15,13,15,171.20
2016,03,15,13,16,156.50
2016,03,15,13,17,140.70
2016,03,15,13,18,127.60
2016,03,15,13,19,119.90
2016,03,15,13,20,118.20
2016,03,15,13,21,120.80
2016,03,15,13,22,126.50
2016,03,15,13,23,133.80
2016,03,15,13,24,140.80
2016,03,15,13,25,146.80
2016,03,15,13,26,150.40
2016,03,15,13,27,153.80
2016,03,15,13,28,156.30
2016,03,15,13,29,156.60
2016,03,15,13,30,155.60
2016,03,15,13,31,163.50
2016,03,15,13,32,178.40
2016,03,15,13,33,202.20
2016,03,15,13,34,217.20
2016,03,15,13,35,215.60
2016,03,15,13,36,206.10
2016,03,15,13,37,196.90
2016,03,15,13,38,189.10
2016,03,15,13,39,182.10
2016,03,15,13,40,178.20
2016,03,15,13,41,179.00
2016,03,15,13,42,179.00
2016,03,15,13,43,179.00
2016,03,15,13,44,178.60
2016,03,15,13,45,175.20
2016,03,15,13,46,171.20
2016,03,15,13,47,169.00
2016,03,15,13,48,169.00
2016,03,15,13,49,168.30
2016,03,15,13,50,164.90
2016,03,15,13,51,159.50
2016,03,15,13,52,153.50
2016,03,15,13,53,149.90
2016,03,15,13,54,174.50
2016,03,15,13,55,163.50
2016,03,15,13,56,138.80
2016,03,15,13,57,133.60
2016,03,15,13,58,128.60
2016,03,15,13,59,122.60
2016,03,15,14,00,118.60
2016,03,15,14,01,114.60
2016,03,15,14,02,113.10
2016,03,15,14,03,113.00
2016,03,15,14,04,115.80
2016,03,15,14,05,121.40
2016,03,15,14,06,129.10
2016,03,15,14,07,140.90
2016,03,15,14,08,153.30
2016,03,15,14,09,167.00
2016,03,15,14,10,183.70
2016,03,15,14,11,202.40
2016,03,15,14,12,218.10
2016,03,15,14,13,228.80
2016,03,15,14,14,235.40
2016,03,15,14,15,235.60
2016,03,15,14,16,231.50
2016,03,15,14,17,230.60
2016,03,15,14,18,269.60
2016,03,15,14,19,282.50
2016,03,15,14,20,277.40
2016,03,15,14,21,275.30
2016,03,15,14,22,263.50
2016,03,15,14,23,269.50
2016,03,15,14,24,272.00
2016,03,15,14,25,305.10
2016,03,15,14,26,309.00
2016,03,15,14,27,309.00
2016,03,15,14,28,235.60
2016,03,15,14,29,209.80
2016,03,15,14,30,206.20
2016,03,15,14,31,239.00
2016,03,15,14,32,239.00
2016,03,15,14,33,229.30
2016,03,15,14,34,198.80
2016,03,15,14,35,189.30
2016,03,15,14,36,183.00
2016,03,15,14,37,188.10
2016,03,15,14,38,197.00
2016,03,15,14,39,194.30
2016,03,15,14,40,187.10
2016,03,15,14,41,189.60
2016,03,15,14,42,206.30
2016,03,15,14,43,229.10
2016,03,15,14,44,247.90
2016,03,15,14,45,273.50
2016,03,15,14,46,313.70
2016,03,15,14,47,323.00
2016,03,15,14,48,729.80
2016,03,15,14,49,730.50
2016,03,15,14,50,728.00
2016,03,15,14,51,723.80
2016,03,15,14,52,648.40
2016,03,15,14,53,642.50
2016,03,15,14,54,634.90
2016,03,15,14,55,608.00
2016,03,15,14,56,562.20
2016,03,15,14,57,459.50
2016,03,15,14,58,542.20
2016,03,15,14,59,561.30
2016,03,15,15,00,574.80
2016,03,15,15,01,589.30
2016,03,15,15,02,579.30
2016,03,15,15,03,572.10
2016,03,15,15,04,600.90
2016,03,15,15,05,641.60
2016,03,15,15,06,652.00
2016,03,15,15,07,672.60
2016,03,15,15,08,685.50
2016,03,15,15,09,687.00
2016,03,15,15,10,688.70
2016,03,15,15,11,695.30
2016,03,15,15,12,687.50
2016,03,15,15,13,683.50
2016,03,15,15,14,674.90
2016,03,15,15,15,673.70
2016,03,15,15,16,677.00
2016,03,15,15,17,659.90
2016,03,15,15,18,652.50
2016,03,15,15,19,645.90
2016,03,15,15,20,642.70
2016,03,15,15,21,642.00
2016,03,15,15,22,618.40
2016,03,15,15,23,594.40
2016,03,15,15,24,620.50
2016,03,15,15,25,625.10
2016,03,15,15,26,628.60
2016,03,15,15,27,631.00
2016,03,15,15,28,485.70
2016,03,15,15,29,401.00
2016,03,15,15,30,401.00
2016,03,15,15,31,401.00
2016,03,15,15,32,549.80
2016,03,15,15,33,584.50
2016,03,15,15,34,582.30
2016,03,15,15,35,582.00
2016,03,15,15,36,578.00
2016,03,15,15,37,577.70
2016,03,15,15,38,573.00
2016,03,15,15,39,573.00
2016,03,15,15,40,576.40
2016,03,15,15,41,589.60
2016,03,15,15,42,591.20
2016,03,15,15,43,588.40
2016,03,15,15,44,587.70
2016,03,15,15,45,590.30
2016,03,15,15,46,594.50
2016,03,15,15,47,601.30
2016,03,15,15,48,608.50
2016,03,15,15,49,608.70
2016,03,15,15,50,608.30
2016,03,15,15,51,611.30
2016,03,15,15,52,583.30
2016,03,15,15,53,575.90
2016,03,15,15,54,570.10
2016,03,15,15,55,560.50
2016,03,15,15,56,555.10
2016,03,15,15,57,562.50
2016,03,15,15,58,554.50
2016,03,15,15,59,546.80
2016,03,15,16,00,542.80
2016,03,15,16,01,539.60
2016,03,15,16,02,537.00
2016,03,15,16,03,544.50
2016,03,15,16,04,549.60
2016,03,15,16,05,547.70
2016,03,15,16,06,545.40
2016,03,15,16,07,536.10
2016,03,15,16,08,521.90
2016,03,15,16,09,512.80
2016,03,15,16,10,512.40
2016,03,15,16,11,501.40
2016,03,15,16,12,512.20
2016,03,15,16,13,529.00
2016,03,15,16,14,395.10
2016,03,15,16,15,259.40
2016,03,15,16,16,260.10
2016,03,15,16,17,217.20
2016,03,15,16,18,202.00
2016,03,15,16,19,430.60
2016,03,15,16,20,487.00
2016,03,15,16,21,489.00
2016,03,15,16,22,489.00
2016,03,15,16,23,537.30
2016,03,15,16,24,522.80
2016,03,15,16,25,511.70
2016,03,15,16,26,503.20
2016,03,15,16,27,511.60
2016,03,15,16,28,493.30
2016,03,15,16,29,448.40
2016,03,15,16,30,373.60
2016,03,15,16,31,364.70
2016,03,15,16,32,349.80
2016,03,15,16,33,344.20
2016,03,15,16,34,360.00
2016,03,15,16,35,360.00
2016,03,15,16,36,364.20
2016,03,15,16,37,372.70
2016,03,15,16,38,374.10
2016,03,15,16,39,356.90
2016,03,15,16,40,339.70
2016,03,15,16,41,319.20
2016,03,15,16,42,235.00
2016,03,15,16,43,243.30
2016,03,15,16,44,246.00
2016,03,15,16,45,371.00
2016,03,15,16,46,341.50
2016,03,15,16,47,317.10
2016,03,15,16,48,336.00
2016,03,15,16,49,298.90
2016,03,15,16,50,160.00
2016,03,15,16,51,203.10
2016,03,15,16,52,343.20
2016,03,15,16,53,345.80
2016,03,15,16,54,332.20
2016,03,15,16,55,314.90
2016,03,15,16,56,321.00
2016,03,15,16,57,337.90
2016,03,15,16,58,325.30
2016,03,15,16,59,300.00
2016,03,15,17,00,300.80
2016,03,15,17,01,309.20
2016,03,15,17,02,314.70
2016,03,15,17,03,298.60
2016,03,15,17,04,294.80
2016,03,15,17,05,300.10
2016,03,15,17,06,307.30
2016,03,15,17,07,254.00
2016,03,15,17,08,218.00
2016,03,15,17,09,186.00
2016,03,15,17,10,185.50
2016,03,15,17,11,180.20
2016,03,15,17,12,176.60
2016,03,15,17,13,186.00
2016,03,15,17,14,209.10
2016,03,15,17,15,210.90
2016,03,15,17,16,231.10
2016,03,15,17,17,210.60
2016,03,15,17,18,218.60